TimeEST,TemperatureF,Dew PointF,Humidity,Sea Level PressureIn,VisibilityMPH,Wind Direction,Wind SpeedMPH,Gust SpeedMPH,PrecipitationIn,Events,Conditions,WindDirDegrees,DateUTC
12:54 AM,28.9,9.0,43,30.15,10.0,ESE,3.5,-,N/A,,Mostly Cloudy,110,2009-01-02 05:54:00
1:54 AM,30.9,10.9,43,30.11,10.0,SSE,9.2,-,N/A,,Overcast,160,2009-01-02 06:54:00
2:54 AM,32.0,10.9,42,30.10,10.0,South,13.8,-,N/A,,Clear,180,2009-01-02 07:54:00
3:54 AM,34.0,10.9,38,30.09,10.0,SSE,5.8,-,N/A,,Overcast,160,2009-01-02 08:54:00
4:54 AM,35.1,15.1,44,30.06,10.0,ESE,3.5,-,N/A,,Overcast,120,2009-01-02 09:54:00
5:54 AM,37.0,21.9,54,30.06,10.0,Calm,Calm,-,N/A,,Mostly Cloudy,0,2009-01-02 10:54:00
6:37 AM,37.4,28.4,70,30.03,10.0,South,11.5,-,N/A,,Overcast,180,2009-01-02 11:37:00
6:54 AM,35.6,30.2,81,30.03,10.0,South,12.7,-,N/A,,Overcast,170,2009-01-02 11:54:00
7:25 AM,35.6,33.8,93,30.04,10.0,South,6.9,-,0.00,Rain,Light Rain,180,2009-01-02 12:25:00
7:51 AM,35.6,33.8,93,30.04,10.0,Calm,Calm,-,0.01,Rain,Light Rain,0,2009-01-02 12:51:00
8:29 AM,35.6,33.8,93,30.03,6.0,South,4.6,-,0.00,Rain,Light Rain,170,2009-01-02 13:29:00
8:54 AM,36.0,35.1,97,30.06,10.0,Calm,Calm,-,0.00,Rain,Light Rain,0,2009-01-02 13:54:00
9:02 AM,35.6,35.6,100,30.03,10.0,SE,4.6,-,0.00,Rain,Light Rain,130,2009-01-02 14:02:00
9:45 AM,39.2,37.4,93,30.02,10.0,South,5.8,-,0.00,,Overcast,180,2009-01-02 14:45:00
9:54 AM,41.0,37.9,89,30.04,10.0,SSW,3.5,-,0.00,,Overcast,200,2009-01-02 14:54:00
10:54 AM,41.0,37.0,86,30.06,10.0,North,5.8,-,N/A,,Overcast,350,2009-01-02 15:54:00
11:54 AM,43.0,37.9,82,30.01,10.0,Calm,Calm,-,N/A,,Overcast,0,2009-01-02 16:54:00
12:54 PM,46.9,39.0,74,29.98,10.0,North,5.8,-,N/A,,Overcast,350,2009-01-02 17:54:00
1:54 PM,46.9,37.0,68,29.96,10.0,NNW,16.1,-,N/A,,Overcast,340,2009-01-02 18:54:00
2:54 PM,48.9,37.0,64,29.94,10.0,NNW,16.1,-,N/A,,Partly Cloudy,340,2009-01-02 19:54:00
3:54 PM,48.0,39.0,71,29.94,10.0,NNW,16.1,-,N/A,,Clear,330,2009-01-02 20:54:00
4:54 PM,46.9,39.9,77,29.96,10.0,NNW,17.3,-,N/A,,Clear,330,2009-01-02 21:54:00
5:54 PM,43.0,39.0,86,29.97,10.0,NNW,12.7,-,N/A,,Clear,340,2009-01-02 22:54:00
6:54 PM,41.0,37.9,89,30.00,10.0,NNW,11.5,-,N/A,,Clear,340,2009-01-02 23:54:00
7:54 PM,41.0,37.9,89,30.01,10.0,NNW,5.8,-,N/A,,Clear,330,2009-01-03 00:54:00
8:54 PM,39.0,37.0,93,30.03,9.0,NNW,5.8,-,N/A,,Clear,330,2009-01-03 01:54:00
9:54 PM,37.9,37.0,97,30.04,8.0,NNW,9.2,-,N/A,,Clear,330,2009-01-03 02:54:00
10:54 PM,36.0,36.0,100,30.05,7.0,North,3.5,-,N/A,,Clear,350,2009-01-03 03:54:00
11:54 PM,35.1,34.0,96,30.05,4.0,Calm,Calm,-,N/A,,Clear,0,2009-01-03 04:54:00